This is the latest recevied weather packets stored in our database for station/object KD8ZLZ-13. If no packets are shown the sender has not sent any weather packets the latest 10 day(s).
| Time | Temp. | Humidity | Pressure | Rain* | Wind** | Luminosity | Snow |
|---|---|---|---|---|---|---|---|
| 1778073642 | 10° C | 49% | 1012.2 hPa | 0 mm | - | 384 W/m² | - |
| 1778073042 | 10° C | 51% | 1012.2 hPa | 0 mm | - | 343 W/m² | - |
| 1778072442 | 9.44° C | 52% | 1011.9 hPa | 0 mm | - | 306 W/m² | - |
| 1778071842 | 9.44° C | 53% | 1011.9 hPa | 0 mm | - | 271 W/m² | - |
| 1778071242 | 9.44° C | 55% | 1011.5 hPa | 0 mm | - | 237 W/m² | - |
| 1778070642 | 8.89° C | 55% | 1011.5 hPa | 0 mm | - | 197 W/m² | - |
| 1778070042 | 8.33° C | 57% | 1011.5 hPa | 0 mm | - | 148 W/m² | - |
| 1778069442 | 7.78° C | 56% | 1011.5 hPa | 0 mm | - | 72 W/m² | - |
| 1778068842 | 7.78° C | 57% | 1011.2 hPa | 0 mm | - | 90 W/m² | - |
| 1778068242 | 7.78° C | 56% | 1011.2 hPa | 0 mm | - | 79 W/m² | - |
| 1778067642 | 7.78° C | 56% | 1011.2 hPa | 0 mm | - | 65 W/m² | - |
| 1778067042 | 7.78° C | 57% | 1010.9 hPa | 0 mm | - | 44 W/m² | - |
| 1778066442 | 7.22° C | 57% | 1010.5 hPa | 0 mm | - | 43 W/m² | - |
| 1778065842 | 7.22° C | 57% | 1010.5 hPa | 0 mm | - | 28 W/m² | - |
| 1778065242 | 7.78° C | 58% | 1010.5 hPa | 0 mm | - | 19 W/m² | - |
| 1778064642 | 7.78° C | 57% | 1010.2 hPa | 0 mm | - | 9 W/m² | - |
| 1778064042 | 7.78° C | 57% | 1010.2 hPa | 0 mm | - | 5 W/m² | - |
| 1778063442 | 8.33° C | 56% | 1010.2 hPa | 0 mm | - | 1 W/m² | - |
| 1778062842 | 8.33° C | 57% | 1010.2 hPa | 0 mm | - | 0 W/m² | - |
| 1778062242 | 8.33° C | 56% | 1010.2 hPa | 0 mm | - | 0 W/m² | - |
| 1778061642 | 8.33° C | 57% | 1010.2 hPa | 0 mm | - | 0 W/m² | - |
| 1778061042 | 8.33° C | 55% | 1009.8 hPa | 0 mm | - | 0 W/m² | - |
| 1778060442 | 8.33° C | 56% | 1010.2 hPa | 0 mm | - | 0 W/m² | - |
| 1778059842 | 8.33° C | 57% | 1009.8 hPa | 0 mm | - | 0 W/m² | - |
| 1778059242 | 8.33° C | 56% | 1009.8 hPa | 0 mm | - | 0 W/m² | - |
* Rain latest hour (hover to see other rain measurements)
** Current wind speed in m/s (hover to see current wind gust speed)